Location: Kutna Hora
(49.9500°N, 15.2670°E)
Time: 01:18:32
(UTC+02:00)

ISS - Pass Details

Date: 23 May 2019
Orbit: 408 x 419 km, 51.6° (Epoch: 21 June)

Event Time Altitude Azimuth Distance (km) Brightness Sun altitude
Rises 01:48:27 0° 287° (WNW) 2,367 0.1 -18.6°
Reaches altitude 10° 01:50:38 10° 280° (W) 1,503 -1.0 -18.5°
Enters shadow 01:51:30 16° 274° (W) 1,178 -1.6 -18.5°
